Location: El Bakhil
(32.7726°N, 5.5387°W)
Time: 00:34:10
(UTC+00:00)

Hubble Space Telescope - Pass Details

Date: 05 December 2021
Orbit: 535 x 538 km, 28.5° (Epoch: 23 January)

Event Time Altitude Azimuth Distance (km) Brightness Sun altitude
Exits shadow 04:57:31 18° 167° (SSE) 1,326 3.0 -27.2°
Drops below altitude 10° 04:59:13 10° 146° (SE) 1,770 3.9 -26.8°
Sets 05:01:49 0° 131° (SE) 2,659 5.2 -26.3°
